This demonstration page uses our WeatherBlox Daily Observations layout. Learn more.

Left ArrowRight Arrow

39.01783, -85.05884

Hourly Observations for June 22, 2015

Temp ( °F °C ) Dew Point ( °F °C ) Humidity (%) Winds ( mph kmh ) Pressure ( in mb ) Visibility ( mi km ) Precip ( " mm )
12:52 am 00:52 Cloudy 74 23.3 68 20 82 82 W 5 7 30.01 1016 10 16 N/A
1:52 am 01:52 Cloudy 73 22.8 68 20 84 84 SW 3 6 30.00 1016 10 16 N/A
2:52 am 02:52 Clear 72 22.2 68 20 87 87 SSW 5 7 30.00 1016 10 16 N/A
3:52 am 03:52 Partly Cloudy 71 21.7 68 20 90 90 N N/A 30.01 1016 10 16 N/A
4:52 am 04:52 Cloudy 70 21.1 68 20 93 93 N N/A 30.02 1017 9 14 N/A
5:52 am 05:52 Cloudy with Mist and Fog 68 20 66 18.9 93 93 N N/A 30.03 1017 6 10 N/A
6:52 am 06:52 Cloudy 70 21.1 67 19.4 90 90 SW 3 6 30.06 1018 10 16 N/A
7:52 am 07:52 Cloudy 72 22.2 67 19.4 84 84 N N/A 30.06 1018 10 16 N/A
8:52 am 08:52 Mostly Cloudy 73 22.8 67 19.4 81 81 SSW 3 6 30.03 1017 10 16 N/A
9:52 am 09:52 Mostly Cloudy 76 24.4 67 19.4 74 74 VRB 5 7 30.01 1016 10 16 N/A
10:52 am 10:52 Partly Cloudy 80 26.7 68 20 67 67 SSE 6 9 30.00 1016 10 16 N/A
11:52 am 11:52 Partly Cloudy 82 27.8 68 20 63 63 VRB 6 9 30.02 1017 10 16 N/A
12:52 pm 12:52 Partly Cloudy 84 28.9 70 21.1 63 63 SSW 9 15 30.06 1018 10 16 N/A
1:52 pm 13:52 Mostly Cloudy 85 29.4 70 21.1 61 61 SW 9 15 30.05 1018 10 16 N/A
2:52 pm 14:52 Mostly Cloudy 86 30 72 22.2 63 63 SSW 14 22 30.01 1016 10 16 N/A
3:52 pm 15:52 Cloudy 84 28.9 70 21.1 63 63 SW 7 11 30.01 1016 10 16 N/A
4:52 pm 16:52 Cloudy 85 29.4 72 22.2 65 65 S 12 19 29.98 1015 10 16 N/A
5:52 pm 17:52 Cloudy 83 28.3 72 22.2 70 70 S 10 17 29.96 1015 10 16 N/A
6:52 pm 18:52 Mostly Cloudy 83 28.3 73 22.8 72 72 S 9 15 29.95 1014 10 16 N/A
7:52 pm 19:52 Mostly Cloudy 83 28.3 74 23.3 74 74 SSW 9 15 29.93 1014 10 16 N/A
8:52 pm 20:52 Mostly Cloudy 81 27.2 73 22.8 77 77 SSW 8 13 29.93 1014 10 16 N/A
9:52 pm 21:52 Partly Cloudy 80 26.7 71 21.7 74 74 SSW 12 19 29.89 1012 10 16 N/A
10:52 pm 22:52 Clear 79 26.1 71 21.7 77 77 SSW 8 13 29.92 1013 10 16 N/A
11:52 pm 23:52 Partly Cloudy 79 26.1 72 22.2 79 79 SSW 9 15 29.93 1013 9 14 N/A

Powered by AerisWeather